Back to catalog

COSMOS 2499 DEB

LostPO
NORAD 55736·DEBRIS·🇷🇺 Russia

Launched May 23, 2014 from Plesetsk Cosmodrome

Loading…

Next Passes (next 24 hours)

TLE

StaleSource: Space-Track

Epoch: May 23, 2023, 02:28 UTC

1 55736U 14028AY  23143.10281863  .00006068  00000-0  18316-1 0  9993
2 55736  82.3627 285.9200 0251481 117.5628 245.1272 12.96414465 14485

Track COSMOS 2499 DEB in real time with AllMySat

Download on the App Store